www.pogodaiklimat.ru

Погода и климат >> Архив погоды >> Португалия >> Порту-Санту


ПОГОДА на Порту-Санту

  • Прогноз погоды на Порту-Санту
  • Монитор погоды на Порту-Санту

АРХИВ ПОГОДЫ на Порту-Санту

Время (UTC), дата Ветер
(напр.,м/с)
 
Видим.   Явления Облачность Т
(С)
Тd
(С)
f
(%)
Тe
(С)
Тes
(С)
Комфортность P
(гПа)
Po
(гПа)
Тmin
(С)
Tmax
(С)
R
(мм)
R24
(мм)
S
(см)
18 15.07 С 5-8
{9}
15 км 9/9 450 м
[Cu Sc]
+21.6 +16.2 71 +25 +25 комфорт 1020.3 1010.7 +23.8
21 15.07 С 6-9
{10}
20 км 9/8 300 м
[St Ac trans]
+20.4 +15.6 74 +23 +23 комфорт 1020.9 1011.3
00 16.07 СВ 6
{19}
20 км 9/8 300 м
[St Ac trans]
+20.4 +15.8 75 +22 +22 комфорт 1021.2 1011.5
03 16.07 СВ 5-8
{12}
20 км 9/8 300 м
[St Ac trans]
+20.7 +16.8 78 +24 +24 комфорт 1020.2 1010.5
06 16.07 С 7 20 км 9/8 300 м
[St Ac trans]
+20.1 +17.0 82 +22 +22 комфорт 1020.1 1002.0 +19.9 0
09 16.07 С 7 15 км 9/8 300 м
[St Ac trans]
+20.8 +16.4 76 +24 +24 комфорт 1020.9 1011.2
12 16.07 С 7-21
{21}
15 км 9/8 300 м
[St Ac trans]
+22.3 +16.6 70 +27 +27 душно 1021.8 1012.2
15 16.07 С 7-10
{11}
20 км 8/5 300 м
[St Ac trans]
+23.3 +17.3 69 +29 +30 душно 1021.3 1011.7
18 16.07 С 6
{10}
20 км 8/8 450 м
[]
+22.0 +17.5 76 +27 +27 душно 1021.2 1011.6 +24.7
21 16.07 С 6
{10}
20 км 6/6 300 м
[]
+20.4 +16.5 78 +23 +23 комфорт 1022.4 1012.7
00 17.07 С 6
{17}
20 км 5/5 300 м
[]
+20.0 +15.4 75 +21 +21 комфорт 1023.2 1013.6
03 17.07 С 5-8
{9}
20 км 8/8 300 м
[]
+19.8 +14.7 72 +22 +22 комфорт 1022.4 1012.8
06 17.07 С 6
{19}
20 км 5/4 300 м
[St Ac trans]
+19.6 -71.8 76 +20 +20 1022.5 1001.8 +19.6 0
09 17.07 С 7
{11}
20 км 5/5 300 м
[]
+22.0 +13.1 57 +25 +26 комфорт 1023.9 1014.3
12 17.07 С 6
{21}
20 км 8/5 300 м
[St Ac trans]
+22.9 +14.2 58 +26 +26 жарко 1024.2 1014.6
15 17.07 С 7-11
{11}
20 км 6/4 300 м
[St Ac trans]
+23.7 +15.0 58 +27 +28 жарко 1023.6 1014.0
18 17.07 С 7-11
{11}
20 км 4/4 450 м
[]
+22.3 +14.6 62 +26 +26 жарко 1023.3 1013.7 +24.5
21 17.07 С 6
{10}
20 км 4/4 300 м
[]
+20.2 +14.8 71 +22 +22 комфорт 1023.8 1014.1
00 18.07 С 6-23
{23}
20 км 5/5 300 м
[]
+20.3 +15.6 74 +22 +22 комфорт 1024.0 1014.4
03 18.07 С 6-10
{10}
20 км 5/5 300 м
[]
+19.7 +14.8 73 +21 +21 комфорт 1022.3 1012.6
06 18.07 С 8
{23}
20 км 5/4 300 м
[Cu Sc As trans Cs]
+19.6 +14.2 71 +20 +20 1021.8 1001.8 +19.5
09 18.07 С 8
{12}
20 км 6/6 300 м
[]
+21.9 +15.2 66 +25 +26 комфорт 1022.5 1012.9
12 18.07 С 7
{21}
20 км 9/5 300 м
[St Ac trans]
+22.6 +16.8 70 +27 +27 душно 1022.3 1012.7
15 18.07 С 8
{12}
20 км 4/4 300 м
[]
+23.6 +16.4 64 +27 +29 жарко 1021.4 1011.8
18 18.07 С 8 20 км 6/6 450 м
[]
+22.1 +17.1 73 +27 +27 душно 1020.4 1010.8 +24.6
21 18.07 С 8
{12}
20 км 4/4 300 м
[]
+20.5 +16.9 80 +23 +23 комфорт 1020.6 1010.9
00 19.07 С 8 20 км 5/5 300 м
[]
+20.5 +17.0 80 +23 +23 комфорт 1020.7 1011.1
03 19.07 С 9 20 км 5/5 300 м
[]
+20.3 +16.2 77 +23 +23 комфорт 1019.2 1009.6
06 19.07 С 8-25
{25}
20 км 9/6 300 м
[St Ac trans]
+20.7 +16.1 75 +23 +23 комфорт 1019.3 1002.0 +20.2
09 19.07 С 9 20 км 8/5 300 м
[St Ac trans]
+22.4 +15.9 67 +27 +27 душно 1020.0 1010.4
12 19.07 С 8 20 км 6/4 300 м
[St Ac trans]
+24.1 +17.9 68 +28 +28 душно 1020.3 1010.8
15 19.07 С 7
{11}
20 км 9/6 300 м
[St Ac trans]
+22.7 +19.3 81 +29 +29 очень
душно
1020.0 1010.4
18 19.07 С 6-9
{11}
15 км 9/9 360 м
[]
+22.5 +19.3 82 +28 +29 душно 1019.5 1010.0 +25.6
21 19.07 С 6-10
{10}
15 км 9/8 200 м
[St Ac trans]
+21.3 +19.1 87 +26 +26 душно 1020.1 1010.5
00 20.07 С 6
{19}
15 км 8/4 300 м
[St Ac trans]
+21.1 +19.0 88 +25 +25 комфорт 1020.5 1010.9
03 20.07 С 6
{9}
15 км 6/6 300 м
[]
+20.7 +18.4 87 +25 +25 комфорт 1019.9 1010.3
06 20.07 С 4
{9}
15 км 9/8 300 м
[Cu Sc As trans Ci sp]
+20.8 +18.7 88 +25 +25 комфорт 1019.9 1002.0 +20.4 0
09 20.07 С 5-9
{9}
15 км 9/6 300 м
[St Ac trans]
+21.2 +18.7 86 +26 +26 душно 1021.3 1011.7
12 20.07 С 6
{19}
20 км 5/4 300 м
[St Ac trans]
+24.5 +19.0 71 +29 +29 душно 1022.2 1012.7
15 20.07 С 7 20 км 5/4 300 м
[St Ac trans]
+24.5 +17.8 66 +29 +31 душно 1021.9 1012.4
18 20.07 С 5-8
{9}
20 км 9/9 450 м
[]
+23.1 +18.6 76 +29 +29 очень
душно
1022.0 1012.4 +26.2
21 20.07 С 4-8
{8}
20 км 9/5 300 м
[St Ac trans]
+21.8 +19.5 87 +27 +27 душно 1022.9 1013.3
00 21.07 С 5
{17}
20 км 3/3 300 м
[]
+20.8 +18.7 88 +24 +24 комфорт 1023.4 1013.8
03 21.07 С 6-9
{9}
20 км 5/5 300 м
[]
+20.4 +17.1 81 +23 +23 комфорт 1022.3 1012.7
06 21.07 С 5-8
{8}
20 км 5/4 300 м
[Cu Sc As trans Ci]
+20.4 +17.5 83 +24 +24 комфорт 1022.6 1001.9 +20.0
09 21.07 С 5
{9}
20 км 6/6 300 м
[]
+21.9 +17.0 74 +26 +28 душно 1023.4 1013.8
12 21.07 С 5-17
{21}
20 км 6/6 300 м
[]
+22.9 +17.1 70 +28 +28 душно 1023.7 1014.1
15 21.07 С 6
{9}
20 км 5/5 450 м
[Cu Sc]
+23.5 +17.2 68 +27 +31 душно 1023.2 1013.6
18 21.07 С 5
{10}
20 км 4/4 450 м
[]
+23.1 +17.9 73 +29 +30 очень
душно
1022.6 1013.1 +24.9
21 21.07 С 6 20 км 4/4 450 м
[Cu Sc]
+20.9 +17.0 78 +24 +24 комфорт 1023.4 1013.8
00 22.07 СВ 4
{14}
20 км 6/6 300 м
[]
+20.5 +16.5 78 +23 +23 комфорт 1023.9 1014.2
03 22.07 С 4-7
{7}
20 км 5/5 450 м
[Cu Sc]
+19.9 +16.9 83 +23 +23 комфорт 1022.3 1012.6
06 22.07 С 5
{16}
20 км 6/5 300 м
[Cu Sc As trans Cs]
+20.2 +16.7 80 +22 +22 комфорт 1022.0 1001.8 +19.6
09 22.07 С 4-7
{8}
25 км 6/6 450 м
[Cu Sc]
+21.5 +15.8 70 +25 +27 комфорт 1022.5 1012.8
12 22.07 С 6
{17}
25 км 8/8 450 м
[Cu Sc]
+22.9 +16.8 68 +28 +28 душно 1022.3 1012.7
15 22.07 С 6-9
{9}
25 км 5/5 450 м
[Cu Sc]
+23.5 +17.3 68 +27 +31 душно 1021.5 1011.9

 

Местоположение метеостанции Порту-Санту (Португалия): широта 33.07 долгота -16.35 высота над уровнем моря 82 м.

В архиве по умолчанию представлена погода на Порту-Санту за последнюю неделю. Архивные данные за месяц целиком и за предыдущие месяцы, начиная с января 2011 года, Вы можете получить, выбрав интересующий диапазон дат из раскрывающегося списка и нажав кнопку "Ввод!".


*Определитесь, кто Вы:
робот инопланетянин человек

Внимание! Время в таблицах - всемирное. Для получения местного времени необходимо прибавить поправку, которая равна 0 ч.

Смотрите также архив погоды в соседних городах и на ближайших метеорологических станциях:

Погода в Санта-Катарине (Португалия) (58 км)
Погода в Фуншале (Португалия) (71 км)
Погода на Тенерифе (Канарские Острова) (512 км)
Погода на Пальме (Канарские Острова) (513 км)
Погода в Санта-Круз-де-Тенерифе (Канарские Острова) (514 км)
Погода в Пуэрто-де-ла-Крус (Канарские Острова) (518 км)
Погода в Тасакорте (Канарские Острова) (519 км)
Погода в Аэропорту Лансароте (Канарские Острова) (528 км)
Погода в Тенерифе-Гуимаре (Канарские Острова) (528 км)
Погода в Обсерватории Izana (Канарские Острова) (531 км)

Пояснения к столбцам:

Ветер - указаны скорость ветра в м/с - средняя за 10 мин, порывы в срок и между сроками (в фигурных скобках) и направление, откуда дует ветер: С - северный, СВ - северо-восточный, В - восточный, ЮВ - юго-восточный, Ю - южный, ЮЗ - юго-западный, З - западный, СЗ - северо-западный.
Видимость - горизонтальная дальность видимости в метрах или километрах. При видимости от 1 до 10 км при отсутствии осадков обычно наблюдается дымка, при ухудшении видимости до 1 км и менее - туман. В сухую погоду видимость может ухудшаться дымом, пылью или мглою.
Явления - указаны атмосферные явления, наблюдавшиеся в срок или в последний час перед сроком; фигурными скобками обозначены явления, наблюдавшиеся между сроками (за 1-3 часа до срока); квадратными скобками обозначены град или гололедные отложения с указанием их диаметра в мм.
Облачность - указаны через наклонную черту общая и нижняя облачность в баллах и высота нижней границы облаков в метрах; квадратными скобками обозначены формы облаков: Ci - перистые, Cs - перисто-слоистые, Cc - перисто-кучевые, Ac - высококучевые, As - высокослоистые, Sc - слоисто-кучевые, Ns - слоисто-дождевые, Cu - кучевые, Cb - кучево-дождевые. Подробнее классификацию облаков см. в Атласе облаков (PDF).
T - Температура воздуха - температура, измеренная на высоте 2 м над землей.
Td - Температура точки росы - температура, при понижении до которой содержащийся в воздухе водяной пар достигнет насыщения.
f - Относительная влажность воздуха - влажноcть воздуха, измеренная на высоте 2 м над землей.
Te - Эффективная температура - температура, которую ощущает одетый по сезону человек в тени. Характеристика душности погоды. При расчете учитывается влияние влажности воздуха и скорости ветра на теплоощущения человека.
Tes - Эффективная температура на солнце - температура, которую ощущает человек, с поправкой на солнечный нагрев. Характеристика знойности погоды. Зависит от высоты солнца над горизонтом, облачности и скорости ветра. Ночью, в пасмурную погоду, а также при ветре 12 м/с и более поправка равна нулю.
P - Атмосферное давление - приведенное к уровню моря атмосферное давление.
Po - Атмосферное давление - измеренное на уровне метеостанции атмосферное давление.
Tmin - Минимальная температура - минимум температуры воздуха на высоте 2 м над землей.
Tmax - Максимальная температура - максимум температуры воздуха на высоте 2 м над землей.
R - Количество осадков - Количество выпавших осадков за период времени, мм. При наведении курсора мыши на число - период времени, за который выпало указанное количество осадков.
R24 - Количество осадков - Количество выпавших осадков за 24 часа, мм.
S - Снежный покров - Высота снежного покрова, см. При наведении курсора мыши на число - состояние снежного покрова и степень покрытия местности в баллах.